Chillicothe, MO

5:35 AM CST on December 13, 2017 (GMT -0600)
Chillicothe

Weather History for KCDJ - April, 2012

Change the Weather History Date:

Sunday, April 29, 2012

  Actual Average (KIRK) Record (KIRK)
Temperature  
Mean Temperature 52 °F -  
Max Temperature 55 °F 68 °F 90 °F (1942)
Min Temperature 48 °F 46 °F 27 °F (1958)
Degree Days  
Heating Degree Days 14    
Growing Degree Days 2 (Base 50)    
Moisture  
Dew Point 50 °F    
Average Humidity 93    
Maximum Humidity 100    
Minimum Humidity 80    
Precipitation  
Precipitation 0.48 in - - ()
Sea Level Pressure  
Sea Level Pressure 30.04 in    
Wind  
Wind Speed 7 mph (NE)    
Max Wind Speed 10 mph    
Max Gust Speed 17 mph    
Averages and records for this station are not official NWS values.
T = Trace of Precipitation, MM = Missing Value Source: NWS Daily Summary

Daily Weather History Graph

Daily Weather History Graph

Search for Another Location

Airport or City:

Trip Planner

Search our weather history database for the weather conditions in past years. The results will help you decide how hot, cold, wet, or windy it might be!

Date:

Astronomy

Apr. 29, 2012 Rise Set
Actual Time 6:16 AM CDT 8:07 PM CDT
Civil Twilight 5:47 AM CDT 8:36 PM CDT
Nautical Twilight 5:12 AM CDT 9:11 PM CDT
Astronomical Twilight 4:34 AM CDT 9:49 PM CDT
Moon 1:01 PM CDT (4/29) 2:06 AM CDT (4/29)
Length of Visible Light 14h 48m
Length of Day
13h 50m
First Quarter, 53% of the Moon is Illuminated
Apr 29
First Quarter
May 5
Full
May 12
Last Quarter
May 20
New
May 28
First Quarter

Hourly Weather History & Observations

Time (CDT) Temp. Dew Point Humidity Pressure Visibility Wind Dir Wind Speed Gust Speed Precip Events Conditions
12:52 AM 55.9 °F 50.0 °F 80% 30.06 in - NNE 6.9 mph - N/A   Unknown
1:52 AM 54.0 °F 48.9 °F 83% 30.09 in - North 5.8 mph - 0.01 in   Unknown
2:52 AM 52.0 °F 48.9 °F 89% 30.07 in - NE 8.1 mph - 0.16 in   Unknown
3:52 AM 51.1 °F 50.0 °F 96% 30.07 in - ENE 9.2 mph - 0.04 in   Unknown
4:52 AM 50.0 °F 48.9 °F 96% 30.05 in - NE 6.9 mph 17.3 mph N/A   Unknown
5:52 AM 50.0 °F 48.0 °F 93% 30.07 in - ENE 4.6 mph - N/A   Unknown
6:52 AM 50.0 °F 48.0 °F 93% 30.04 in - NE 9.2 mph - 0.01 in   Unknown
7:52 AM 50.0 °F 50.0 °F 100% 30.06 in - Variable 4.6 mph - 0.05 in   Unknown
8:52 AM 50.0 °F 48.9 °F 96% 30.06 in - ENE 9.2 mph - 0.02 in   Unknown
9:52 AM 48.9 °F - N/A% 30.08 in - NNE 5.8 mph - 0.10 in   Unknown
10:52 AM 48.9 °F - N/A% 30.09 in - NE 10.4 mph - 0.01 in   Unknown
11:52 AM 48.9 °F 48.0 °F 97% 30.09 in - ENE 6.9 mph - N/A   Unknown
12:52 PM 48.9 °F 48.0 °F 97% 30.08 in - East 3.5 mph - 0.01 in   Unknown
1:52 PM 50.0 °F 48.9 °F 96% 30.03 in - NE 6.9 mph - 0.05 in   Unknown
2:52 PM 53.1 °F 51.1 °F 93% 29.99 in - ENE 8.1 mph - 0.02 in   Unknown
3:52 PM 54.0 °F 51.1 °F 90% 29.99 in - NE 4.6 mph - N/A   Unknown
4:52 PM 54.0 °F 51.1 °F 90% 30.01 in - NE 4.6 mph - N/A   Unknown
5:52 PM 54.0 °F 51.1 °F 90% 30.00 in - ENE 6.9 mph - N/A   Unknown
6:52 PM 54.0 °F 52.0 °F 93% 29.99 in - NE 5.8 mph - N/A   Unknown
7:52 PM 53.1 °F 51.1 °F 93% 29.98 in - ENE 5.8 mph - N/A   Unknown
8:52 PM 53.1 °F 52.0 °F 96% 29.99 in - NE 3.5 mph - N/A   Unknown
9:52 PM 54.0 °F 52.0 °F 93% 30.00 in - NNW 3.5 mph - N/A   Unknown
10:52 PM 53.1 °F 52.0 °F 96% 29.99 in - NNW 4.6 mph - N/A   Unknown
11:52 PM 53.1 °F 51.1 °F 93% 30.02 in - Variable 3.5 mph - N/A   Unknown